[[{"header":{"parameterUnit":"m.s-1","parameterCategory":1,"la1":30.2991,"la2":30.254,"lo1":-89.0895,"lo2":-89.0444,"dy":0.0017,"dx":0.0017,"nx":28,"ny":28,"refTime":"2024-03-06T09:00:00:Z","depth":0,"parameterNumber":2,"parameterNumberName":"U-component_of_WINDS"},"data":[0,0,0,0,0,0,0,0,0,0,0,0,0,0,0,0,0,0,0,0,0,0,0,0,0,0,0,0,0,0,0,0,0,0,0,0,0,0,0,0,0,0,0,0,0,0,0,0,0,0,0,0,0,0,0,0,0,0,1.672,1.6721,0,1.6794,1.6795,1.6796,1.6812,1.6811,1.681,1.681,1.6886,1.6888,1.6891,0,0,0,0,0,0,0,0,0,0,0,0,0,1.6594,1.6596,1.672,1.6721,1.6722,1.6794,1.6795,1.6796,1.6812,1.6811,1.681,1.681,1.6885,1.6888,1.6891,0,0,0,0,0,0,0,0,0,0,0,0,0,1.6656,1.6597,1.672,1.6739,1.6741,1.6794,1.6795,1.6796,1.6812,1.6811,1.681,1.6809,1.6884,1.6888,1.6891,1.6931,0,0,1.6903,1.6905,0,0,0,0,0,0,0,0,1.6653,1.6661,1.6735,1.6737,1.674,1.6793,1.6778,1.6842,1.6812,1.6785,1.681,1.6809,1.6856,1.6862,1.6877,1.6935,1.6938,1.6903,1.6906,1.6907,1.6908,0,0,0,0,0,0,0,1.6648,1.6658,1.675,1.6736,1.6739,1.6744,1.6752,1.679,1.6824,1.6787,1.6789,1.6797,1.6857,1.6874,1.6879,1.6939,1.6903,1.6907,1.6909,1.691,1.7034,1.7035,0,0,0,0,0,0,1.6641,1.6654,1.6747,1.6752,1.6694,1.6746,1.6755,1.6777,1.6824,1.683,1.6798,1.6798,1.6867,1.6875,1.6882,1.6932,1.6907,1.6911,1.6913,1.7033,1.7034,1.7035,0,0,0,0,0,0,1.6638,1.6649,1.6744,1.6703,1.6716,1.675,1.6773,1.6779,1.6795,1.6831,1.6838,1.6809,1.6867,1.6877,1.6919,1.6935,1.6912,1.6916,1.7032,1.7033,1.7035,1.7032,0,0,0,0,0,0,1.6634,1.6648,1.6663,1.6704,1.6718,1.678,1.6774,1.6781,1.6802,1.6802,1.6843,1.6849,1.6867,1.6913,1.6923,1.694,1.6919,1.7031,1.7033,1.7034,1.7031,1.7034,1.7036,0,0,0,0,0,1.663,1.6659,1.6664,1.6675,1.6738,1.6781,1.6789,1.6809,1.6803,1.6819,1.6842,1.6848,1.6932,1.6917,1.6928,1.6947,1.703,1.7032,1.7034,1.703,1.7033,1.7036,0,0,0,0,0,0,1.6619,1.6665,1.667,1.6714,1.6743,1.6783,1.6803,1.6811,1.6843,1.6842,1.6866,1.6875,1.6916,1.6936,1.6919,1.6988,1.698,1.6985,1.6974,1.6977,1.6979,1.6973,1.6922,0,0,0,0,0,1.6622,1.6653,1.6691,1.6726,1.674,1.6769,1.6789,1.6802,1.6833,1.6846,1.6872,1.6903,1.6936,1.6958,1.699,1.7034,1.7044,1.7052,1.7055,1.7056,1.706,1.7086,1.709,1.7043,1.7043,1.7043,0,0,1.6628,1.6657,1.6675,1.6724,1.6749,1.6781,1.678,1.6813,1.6837,1.6851,1.6893,1.6913,1.6949,1.6993,1.7013,1.7011,1.7075,1.7059,1.706,1.7063,1.7088,1.7093,1.7097,1.7044,1.7044,1.7044,0,0,1.6655,1.668,1.6712,1.6736,1.6773,1.6793,1.68,1.684,1.6854,1.6896,1.6908,1.6937,1.6993,1.7019,1.7039,1.7077,1.7084,1.7087,1.7099,1.7124,1.7127,1.7131,1.7145,1.715,1.7091,1.7091,1.7091,0,1.6658,1.6706,1.6727,1.676,1.6782,1.6797,1.6829,1.6852,1.6898,1.6913,1.6909,1.6982,1.7007,1.7057,1.7066,1.7082,1.7092,1.7082,1.7125,1.7129,1.7132,1.7146,1.7151,1.7091,1.7091,1.7091,1.7091,0,1.6708,1.6741,1.6762,1.6807,1.6831,1.6864,1.689,1.6913,1.6924,1.6944,1.6987,1.7018,1.7058,1.7071,1.7082,1.7123,1.712,1.712,1.7113,1.7137,1.715,1.7155,1.7091,1.7091,1.7091,1.7091,0,0,1.6729,1.6785,1.6793,1.6814,1.6856,1.6883,1.6917,1.6956,1.6974,1.7006,1.7035,1.7084,1.7085,1.7108,1.7122,1.7144,1.7173,1.7142,1.7143,1.7147,1.7221,1.722,1.7226,1.7178,1.7179,1.718,1.7218,0,1.6762,1.6823,1.6843,1.6894,1.6925,1.694,1.697,1.7,1.7019,1.7049,1.7071,1.7105,1.7104,1.7118,1.714,1.7164,1.7188,1.7162,1.7206,1.7207,1.7196,1.7233,1.7232,1.7266,1.7223,1.7224,1.7225,0,1.6807,1.684,1.6894,1.6933,1.6947,1.6974,1.7011,1.704,1.7074,1.7087,1.7114,1.7126,1.7163,1.7154,1.7206,1.7188,1.7207,1.7222,1.7224,1.7228,1.7217,1.7238,1.7278,1.7283,1.7233,1.7232,1.7232,0,1.6818,1.6875,1.6915,1.6932,1.6979,1.6998,1.7018,1.7052,1.7074,1.7107,1.7122,1.7159,1.718,1.7208,1.7231,1.7222,1.7281,1.7273,1.7293,1.7293,1.7304,1.7303,1.7347,1.7317,1.7317,1.7317,1.7317,0,1.6852,1.6884,1.6921,1.6945,1.6982,1.7006,1.7042,1.7064,1.7094,1.7123,1.7138,1.7166,1.7194,1.7225,1.7244,1.7284,1.7293,1.7305,1.7309,1.7304,1.7302,1.7316,1.7315,1.7318,1.7318,1.7318,1.7317,0,1.687,1.6896,1.694,1.6981,1.6993,1.7018,1.7054,1.7078,1.7099,1.7136,1.7146,1.7179,1.7217,1.7243,1.7291,1.7304,1.7347,1.7351,1.7336,1.7338,1.7356,1.7354,1.7411,1.742,1.7383,1.7383,1.7384,0,1.689,1.6915,1.696,1.698,1.7001,1.7034,1.7057,1.7082,1.7105,1.7147,1.7167,1.7206,1.7238,1.7298,1.7326,1.7364,1.7369,1.7386,1.7374,1.7368,1.7369,1.7368,1.7371,1.7388,1.7388,1.7388,1.7388,0,1.6923,1.6934,1.6967,1.7004,1.7031,1.7062,1.7093,1.7109,1.7139,1.7165,1.7204,1.7229,1.7279,1.7317,1.7358,1.7379,1.7389,1.7392,1.7399,1.7393,1.7383,1.7389,1.7341,1.7391,1.739,1.739,1.739,1.739,1.6943,1.6966,1.7001,1.7037,1.7063,1.7092,1.7117,1.7142,1.7174,1.7217,1.7229,1.727,1.7305,1.736,1.7383,1.7415,1.7414,1.7423,1.7425,1.7427,1.7427,1.7378,1.7423,1.7423,1.7422,1.7422,1.7422,0,1.6976,1.7,1.7033,1.7075,1.7104,1.7111,1.7146,1.7169,1.7205,1.7236,1.7268,1.7313,1.7351,1.7383,1.7422,1.7442,1.7448,1.7452,1.745,1.7456,1.7426,1.7417,1.7447,1.7447,1.7447,1.7447,1.7447,1.7447,1.6997,1.7038,1.7054,1.7107,1.7131,1.7171,1.719,1.7217,1.7242,1.7292,1.7323,1.7344,1.7376,1.7418,1.7453,1.7462,1.7476,1.7479,1.7488,1.746,1.7457,1.7455,1.7446,1.7481,1.7482,1.7515,1.7515,1.7515]},{"header":{"parameterUnit":"m.s-1","parameterCategory":1,"la1":30.2991,"la2":30.254,"lo1":-89.0895,"lo2":-89.0444,"dy":0.0017,"dx":0.0017,"nx":28,"ny":28,"refTime":"2024-03-06T09:00:00:Z","depth":0,"parameterNumber":3,"parameterNumberName":"V-component_of_WINDS"},"data":[0,0,0,0,0,0,0,0,0,0,0,0,0,0,0,0,0,0,0,0,0,0,0,0,0,0,0,0,0,0,0,0,0,0,0,0,0,0,0,0,0,0,0,0,0,0,0,0,0,0,0,0,0,0,0,0,0,0,-2.4059,-2.406,0,-2.4168,-2.4169,-2.417,-2.4201,-2.4201,-2.42,-2.42,-2.4309,-2.4313,-2.4316,0,0,0,0,0,0,0,0,0,0,0,0,0,-2.3879,-2.3882,-2.4059,-2.4061,-2.4062,-2.4168,-2.4169,-2.4171,-2.4202,-2.4201,-2.42,-2.4199,-2.4308,-2.4312,-2.4317,0,0,0,0,0,0,0,0,0,0,0,0,0,-2.3969,-2.3883,-2.4059,-2.409,-2.4094,-2.4167,-2.4169,-2.4171,-2.4202,-2.4201,-2.42,-2.4199,-2.4307,-2.4312,-2.4317,-2.4367,0,0,-2.4333,-2.4335,0,0,0,0,0,0,0,0,-2.3964,-2.3976,-2.4084,-2.4088,-2.4093,-2.417,-2.4146,-2.4237,-2.4202,-2.4161,-2.42,-2.4199,-2.4264,-2.4272,-2.4295,-2.4372,-2.4377,-2.4333,-2.4337,-2.4339,-2.434,0,0,0,0,0,0,0,-2.3958,-2.3971,-2.4102,-2.4086,-2.4091,-2.4099,-2.4111,-2.4163,-2.4216,-2.4164,-2.4167,-2.4179,-2.4266,-2.429,-2.4298,-2.4378,-2.4333,-2.4338,-2.4341,-2.4343,-2.4505,-2.4506,0,0,0,0,0,0,-2.3946,-2.3966,-2.4099,-2.4105,-2.4025,-2.4103,-2.4116,-2.4146,-2.4215,-2.4225,-2.418,-2.418,-2.4281,-2.4291,-2.4301,-2.4367,-2.4339,-2.4344,-2.4347,-2.4504,-2.4505,-2.4506,0,0,0,0,0,0,-2.3942,-2.3958,-2.4094,-2.4036,-2.4054,-2.4107,-2.414,-2.4149,-2.4173,-2.4227,-2.4237,-2.4195,-2.4281,-2.4294,-2.4351,-2.4371,-2.4346,-2.4351,-2.4502,-2.4504,-2.4506,-2.4496,0,0,0,0,0,0,-2.3937,-2.3956,-2.3975,-2.4037,-2.4057,-2.4142,-2.4142,-2.4152,-2.4182,-2.4183,-2.4243,-2.4253,-2.4281,-2.4343,-2.4356,-2.4377,-2.4355,-2.4501,-2.4503,-2.4505,-2.4494,-2.4497,-2.4499,0,0,0,0,0,-2.393,-2.3967,-2.3976,-2.3992,-2.4083,-2.4143,-2.4155,-2.4188,-2.4183,-2.4203,-2.4239,-2.4251,-2.4366,-2.4349,-2.4364,-2.4387,-2.45,-2.4503,-2.4505,-2.4493,-2.4496,-2.4499,0,0,0,0,0,0,-2.3906,-2.3976,-2.3986,-2.4044,-2.4088,-2.4148,-2.4175,-2.4189,-2.4234,-2.4234,-2.4272,-2.4285,-2.434,-2.4369,-2.4348,-2.444,-2.4433,-2.4439,-2.4419,-2.4422,-2.4425,-2.4417,-2.4359,0,0,0,0,0,-2.3907,-2.3951,-2.4009,-2.4055,-2.4076,-2.4122,-2.4149,-2.4171,-2.4217,-2.4235,-2.4275,-2.4319,-2.4366,-2.4395,-2.4441,-2.4498,-2.4513,-2.4522,-2.4524,-2.4525,-2.453,-2.4565,-2.457,-2.4515,-2.4515,-2.4515,0,0,-2.3911,-2.3954,-2.3979,-2.4051,-2.4087,-2.4132,-2.4137,-2.4183,-2.4217,-2.4242,-2.4299,-2.433,-2.4382,-2.444,-2.4467,-2.4466,-2.4549,-2.4529,-2.4529,-2.4534,-2.4568,-2.4574,-2.4578,-2.4517,-2.4517,-2.4516,0,0,-2.394,-2.3976,-2.402,-2.4056,-2.4112,-2.4142,-2.4152,-2.4211,-2.4233,-2.4291,-2.4311,-2.4352,-2.4431,-2.4468,-2.4497,-2.4542,-2.4556,-2.4556,-2.4567,-2.4601,-2.4605,-2.461,-2.4628,-2.4634,-2.456,-2.456,-2.456,0,-2.3937,-2.4005,-2.404,-2.4086,-2.4118,-2.4144,-2.4189,-2.4222,-2.4289,-2.4311,-2.4308,-2.4409,-2.4445,-2.4514,-2.4525,-2.4547,-2.4561,-2.455,-2.4602,-2.4606,-2.4611,-2.4629,-2.4635,-2.456,-2.456,-2.456,-2.456,0,-2.4,-2.4047,-2.4075,-2.4141,-2.4176,-2.4221,-2.4263,-2.4294,-2.4313,-2.4343,-2.4403,-2.4448,-2.4505,-2.4522,-2.454,-2.4594,-2.4591,-2.4594,-2.4589,-2.4615,-2.4633,-2.464,-2.456,-2.456,-2.456,-2.456,0,0,-2.4017,-2.4102,-2.4112,-2.4143,-2.4207,-2.4244,-2.4291,-2.4347,-2.4374,-2.4419,-2.4461,-2.4527,-2.4532,-2.4565,-2.4587,-2.4617,-2.4653,-2.4617,-2.4619,-2.4624,-2.4717,-2.4715,-2.4722,-2.4661,-2.4663,-2.4664,-2.4713,0,-2.4056,-2.4141,-2.4174,-2.4244,-2.4289,-2.4315,-2.4356,-2.44,-2.443,-2.4473,-2.4506,-2.4554,-2.4555,-2.4575,-2.4605,-2.4642,-2.4672,-2.4638,-2.4701,-2.4703,-2.4689,-2.4731,-2.4729,-2.4773,-2.472,-2.4721,-2.4722,0,-2.4112,-2.416,-2.4235,-2.4295,-2.4315,-2.4351,-2.4407,-2.4447,-2.4498,-2.4518,-2.4556,-2.4577,-2.4628,-2.4618,-2.469,-2.4666,-2.4694,-2.4716,-2.4718,-2.4727,-2.4715,-2.4742,-2.4788,-2.4795,-2.4733,-2.4732,-2.4731,0,-2.412,-2.4202,-2.4259,-2.4284,-2.4355,-2.438,-2.4411,-2.4461,-2.4493,-2.4541,-2.4563,-2.4616,-2.4645,-2.4686,-2.4721,-2.4711,-2.479,-2.4783,-2.4809,-2.4809,-2.4826,-2.4824,-2.4878,-2.484,-2.484,-2.484,-2.484,0,-2.4161,-2.4206,-2.4263,-2.4298,-2.435,-2.4387,-2.4438,-2.447,-2.4514,-2.4556,-2.4581,-2.462,-2.4663,-2.4708,-2.4736,-2.4792,-2.4804,-2.4823,-2.483,-2.4822,-2.482,-2.4841,-2.484,-2.4842,-2.4842,-2.4841,-2.4841,0,-2.4178,-2.4218,-2.4281,-2.4344,-2.4361,-2.4396,-2.445,-2.4485,-2.4517,-2.457,-2.4584,-2.4634,-2.4688,-2.4728,-2.4796,-2.4815,-2.4876,-2.4882,-2.486,-2.4864,-2.4889,-2.4886,-2.496,-2.4972,-2.4924,-2.4924,-2.4924,0,-2.4202,-2.4238,-2.4305,-2.4335,-2.4366,-2.4414,-2.4448,-2.4487,-2.4521,-2.4583,-2.461,-2.4666,-2.4713,-2.4798,-2.4841,-2.4894,-2.4903,-2.4925,-2.4911,-2.4903,-2.4906,-2.4904,-2.4909,-2.4927,-2.4928,-2.4928,-2.4928,0,-2.4242,-2.426,-2.4308,-2.4364,-2.4404,-2.4449,-2.4494,-2.4518,-2.4565,-2.4602,-2.4658,-2.4695,-2.4766,-2.4822,-2.488,-2.4912,-2.4929,-2.4932,-2.4942,-2.4934,-2.4921,-2.4931,-2.4867,-2.4931,-2.493,-2.493,-2.493,-2.493,-2.4265,-2.4299,-2.4352,-2.4405,-2.4444,-2.4486,-2.4523,-2.456,-2.4608,-2.467,-2.469,-2.4748,-2.48,-2.488,-2.4913,-2.4959,-2.4959,-2.4971,-2.4975,-2.4978,-2.4979,-2.4912,-2.497,-2.497,-2.497,-2.497,-2.497,0,-2.4308,-2.4344,-2.4392,-2.4456,-2.4498,-2.451,-2.4562,-2.4597,-2.4648,-2.4695,-2.4741,-2.4807,-2.4861,-2.4909,-2.4966,-2.4994,-2.5003,-2.5008,-2.5007,-2.5015,-2.4975,-2.4963,-2.5,-2.5,-2.5,-2.5,-2.5,-2.5,-2.4335,-2.4394,-2.4419,-2.4498,-2.4533,-2.4592,-2.462,-2.466,-2.4698,-2.4771,-2.4817,-2.4847,-2.4895,-2.4956,-2.5007,-2.5019,-2.504,-2.5043,-2.5058,-2.502,-2.5017,-2.5014,-2.5002,-2.5047,-2.5047,-2.5094,-2.5094,-2.5094]}]]